This is the latest recevied weather packets stored in our database for station/object K5GTX. If no packets are shown the sender has not sent any weather packets the latest 10 day(s).
| Time | Temp. | Humidity | Pressure | Rain* | Wind** | Luminosity | Snow |
|---|---|---|---|---|---|---|---|
| 1777920802 | 26.67° C | 99% | 1016.4 hPa | 0 mm | - | 683 W/m² | - |
| 1777920498 | 26.67° C | 99% | 1016.6 hPa | 0 mm | - | 718 W/m² | - |
| 1777920194 | 25.56° C | 99% | 1016.5 hPa | 0 mm | - | 553 W/m² | - |
| 1777919889 | 26.11° C | 99% | 1016.6 hPa | 0 mm | - | 43 W/m² | - |
| 1777919587 | 25.56° C | 99% | 1016.8 hPa | 0 mm | - | 576 W/m² | - |
| 1777919285 | 25.56° C | 99% | 1016.9 hPa | 0 mm | - | 694 W/m² | - |
| 1777918982 | 25.56° C | 99% | 1016.8 hPa | 0 mm | - | 708 W/m² | - |
| 1777918679 | 25.56° C | 99% | 1017 hPa | 0 mm | - | 654 W/m² | - |
| 1777918376 | 26.11° C | 99% | 1017 hPa | 0 mm | - | 414 W/m² | - |
| 1777918075 | 25.56° C | 99% | 1017.2 hPa | 0 mm | - | 702 W/m² | - |
| 1777917774 | 25.56° C | 99% | 1017 hPa | 0 mm | - | 533 W/m² | - |
| 1777917471 | 25.56° C | 99% | 1017.4 hPa | 0 mm | - | 648 W/m² | - |
| 1777917168 | 25.56° C | 99% | 1017.3 hPa | 0 mm | - | 566 W/m² | - |
| 1777916865 | 25.56° C | 99% | 1017.6 hPa | 0 mm | - | 772 W/m² | - |
| 1777916563 | 25° C | 99% | 1017.6 hPa | 0 mm | - | 750 W/m² | - |
| 1777916259 | 25° C | 99% | 1017.6 hPa | 0 mm | - | 734 W/m² | - |
| 1777915957 | 25° C | 99% | 1017.9 hPa | 0 mm | - | 673 W/m² | - |
| 1777915653 | 25° C | 99% | 1018 hPa | 0 mm | - | 574 W/m² | - |
| 1777915350 | 25° C | 99% | 1017.8 hPa | 0 mm | - | 453 W/m² | - |
| 1777915046 | 24.44° C | 99% | 1017.9 hPa | 0 mm | - | 626 W/m² | - |
| 1777914743 | 25° C | 99% | 1018 hPa | 0 mm | - | 576 W/m² | - |
| 1777914440 | 25° C | 99% | 1018.3 hPa | 0 mm | - | 674 W/m² | - |
| 1777914137 | 24.44° C | 99% | 1018.3 hPa | 0 mm | - | 609 W/m² | - |
| 1777913833 | 24.44° C | 99% | 1018.4 hPa | 0 mm | - | 647 W/m² | - |
| 1777913530 | 23.89° C | 99% | 1018.8 hPa | 0 mm | - | 546 W/m² | - |
* Rain latest hour (hover to see other rain measurements)
** Current wind speed in m/s (hover to see current wind gust speed)